Weather History for Mount Sterling, KY

Change the Weather History Date:

Thursday, November 28, 2013

  Actual Average Record
Temperature  
Mean Temperature 24 °F -  
Max Temperature 35 °F 53 °F 35 °F (2013)
Min Temperature 14 °F 32 °F 14 °F (2013)
Degree Days  
Heating Degree Days 40    
Moisture  
Dew Point 19 °F    
Average Humidity 77    
Maximum Humidity 100    
Minimum Humidity 56    
Precipitation  
Precipitation 0.00 in - - ()
Sea Level Pressure  
Sea Level Pressure 30.38 in    
Wind  
Wind Speed 6 mph (WSW)    
Max Wind Speed 13 mph    
Max Gust Speed 17 mph    
Visibility 10 miles    
Events      
Averages and records for this station are not official NWS values.
T = Trace of Precipitation, MM = Missing Value Source: NWS Daily Summary

Daily Weather History Graph

Daily Weather History Graph

Search for Another Location

Airport:

Trip Planner

Search our weather history database for the weather conditions in past years. The results will help you decide how hot, cold, wet, or windy it might be!

Date:

Astronomy

Nov. 28, 2013 Rise Set
Actual Time 7:30 AM EST 5:17 PM EST
Civil Twilight 7:01 AM EST 5:46 PM EST
Nautical Twilight 6:29 AM EST 6:18 PM EST
Astronomical Twilight 5:57 AM EST 6:50 PM EST
Moon 2:36 AM EST (11/28) 2:22 PM EST (11/28)
Length of Visible Light 10h 44m
Length of Day
9h 46m
Waning Crescent, 22% of the Moon is Illuminated
Nov 28
Waning Crescent
Dec 2
New
Dec 9
First Quarter
Dec 17
Full
Dec 25
Last Quarter

Hourly Weather History & Observations

Time (EST) Temp. Windchill Dew Point Humidity Pressure Visibility Wind Dir Wind Speed Gust Speed Precip Events Conditions
12:15 AM 19.4 °F 12.8 °F 17.6 °F 93% 30.31 in 10.0 mi WNW 4.6 mph - N/A   Clear
12:35 AM 19.4 °F 12.8 °F 15.8 °F 86% 30.32 in 10.0 mi WNW 4.6 mph - N/A   Clear
12:55 AM 19.4 °F 14.3 °F 15.8 °F 86% 30.32 in 10.0 mi WNW 3.5 mph - N/A   Clear
1:15 AM 19.4 °F 12.8 °F 15.8 °F 86% 30.32 in 10.0 mi West 4.6 mph - N/A   Clear
1:35 AM 19.4 °F 14.3 °F 15.8 °F 86% 30.32 in 10.0 mi WNW 3.5 mph - N/A   Clear
1:55 AM 19.4 °F 14.3 °F 14.0 °F 80% 30.32 in 10.0 mi WSW 3.5 mph - N/A   Clear
2:15 AM 19.4 °F 14.3 °F 14.0 °F 80% 30.32 in 10.0 mi WSW 3.5 mph - N/A   Clear
2:35 AM 17.6 °F 9.3 °F 14.0 °F 86% 30.33 in 10.0 mi WSW 5.8 mph - N/A   Clear
2:55 AM 17.6 °F 10.7 °F 14.0 °F 86% 30.34 in 10.0 mi WSW 4.6 mph - N/A   Clear
3:15 AM 17.6 °F 10.7 °F 14.0 °F 86% 30.35 in 10.0 mi WSW 4.6 mph - N/A   Clear
3:35 AM 15.8 °F 8.6 °F 14.0 °F 93% 30.36 in 10.0 mi West 4.6 mph - N/A   Clear
3:55 AM 17.6 °F 9.3 °F 14.0 °F 86% 30.34 in 10.0 mi SW 5.8 mph - N/A   Clear
4:15 AM 15.8 °F 8.6 °F 14.0 °F 93% 30.35 in 10.0 mi SW 4.6 mph - N/A   Clear
4:35 AM 15.8 °F 8.6 °F 14.0 °F 93% 30.36 in 10.0 mi SW 4.6 mph - N/A   Clear
4:55 AM 15.8 °F 7.2 °F 14.0 °F 93% 30.36 in 10.0 mi SW 5.8 mph - N/A   Clear
5:15 AM 17.6 °F 10.7 °F 14.0 °F 86% 30.38 in 10.0 mi SW 4.6 mph - N/A   Clear
5:35 AM 15.8 °F 10.2 °F 14.0 °F 93% 30.38 in 10.0 mi SW 3.5 mph - N/A   Clear
5:55 AM 15.8 °F 10.2 °F 14.0 °F 93% 30.38 in 10.0 mi WSW 3.5 mph - N/A   Clear
6:15 AM 14.0 °F 2.9 °F 14.0 °F 100% 30.39 in 10.0 mi SW 8.1 mph - N/A   Clear
6:35 AM 17.6 °F 9.3 °F 15.8 °F 93% 30.39 in 10.0 mi SW 5.8 mph - N/A   Clear
6:55 AM 17.6 °F 12.3 °F 15.8 °F 93% 30.40 in 10.0 mi WSW 3.5 mph - N/A   Clear
7:15 AM 17.6 °F 10.7 °F 17.6 °F 100% 30.42 in 10.0 mi WSW 4.6 mph - N/A   Clear
7:35 AM 17.6 °F 10.7 °F 15.8 °F 93% 30.42 in 10.0 mi SW 4.6 mph - N/A   Clear
7:55 AM 19.4 °F 12.8 °F 17.6 °F 93% 30.42 in 10.0 mi SW 4.6 mph - N/A   Clear
8:15 AM 19.4 °F 10.4 °F 17.6 °F 93% 30.44 in 10.0 mi WSW 6.9 mph - N/A   Clear
8:35 AM 21.2 °F 12.6 °F 17.6 °F 86% 30.44 in 10.0 mi WSW 6.9 mph - N/A   Clear
8:55 AM 21.2 °F 12.6 °F 17.6 °F 86% 30.45 in 10.0 mi SW 6.9 mph - N/A   Clear
9:15 AM 21.2 °F 13.6 °F 17.6 °F 86% 30.44 in 10.0 mi SW 5.8 mph - N/A   Clear
9:35 AM 23.0 °F 13.9 °F 17.6 °F 80% 30.44 in 10.0 mi SW 8.1 mph - N/A   Clear
9:55 AM 23.0 °F 13.9 °F 17.6 °F 80% 30.44 in 10.0 mi SW 8.1 mph - N/A   Clear
10:15 AM 24.8 °F 16.1 °F 17.6 °F 74% 30.44 in 10.0 mi SW 8.1 mph - N/A   Clear
10:35 AM 26.6 °F 17.5 °F 17.6 °F 69% 30.45 in 10.0 mi SSW 9.2 mph - N/A   Clear
10:55 AM 26.6 °F 17.5 °F 17.6 °F 69% 30.44 in 10.0 mi SW 9.2 mph - N/A   Clear
11:15 AM 26.6 °F 19.1 °F 19.4 °F 74% 30.43 in 10.0 mi SW 6.9 mph - N/A   Clear
11:35 AM 28.4 °F 21.2 °F 19.4 °F 69% 30.42 in 10.0 mi WSW 6.9 mph - N/A   Clear
11:55 AM 30.2 °F 23.4 °F 19.4 °F 64% 30.42 in 10.0 mi WSW 6.9 mph - N/A   Clear
12:15 PM 30.2 °F 21.9 °F 21.2 °F 69% 30.40 in 10.0 mi WSW 9.2 mph - N/A   Clear
12:35 PM 30.2 °F 24.3 °F 21.2 °F 69% 30.40 in 10.0 mi SW 5.8 mph - N/A   Clear
12:55 PM 32.0 °F 23.6 °F 21.2 °F 64% 30.38 in 10.0 mi SW 10.4 mph - N/A   Clear
1:15 PM 32.0 °F 24.8 °F 21.2 °F 64% 30.37 in 10.0 mi SW 8.1 mph - N/A   Clear
1:35 PM 32.0 °F 24.8 °F 21.2 °F 64% 30.36 in 10.0 mi SW 8.1 mph - N/A   Clear
1:55 PM 32.0 °F 24.8 °F 23.0 °F 69% 30.35 in 10.0 mi SSW 8.1 mph - N/A   Clear
2:15 PM 33.8 °F 25.8 °F 23.0 °F 65% 30.35 in 10.0 mi SSW 10.4 mph - N/A   Clear
2:35 PM 33.8 °F 25.3 °F 21.2 °F 60% 30.33 in 10.0 mi SW 11.5 mph 17.3 mph N/A   Clear
2:55 PM 33.8 °F 25.3 °F 21.2 °F 60% 30.33 in 10.0 mi SSW 11.5 mph - N/A   Clear
3:15 PM 33.8 °F 24.8 °F 21.2 °F 60% 30.32 in 10.0 mi SSW 12.7 mph 17.3 mph N/A   Clear
3:35 PM 35.6 °F 27.5 °F 23.0 °F 60% 30.32 in 10.0 mi SSW 11.5 mph 16.1 mph N/A   Clear
3:55 PM 35.6 °F 29.9 °F 23.0 °F 60% 30.32 in 10.0 mi SW 6.9 mph - N/A   Clear
4:15 PM 35.6 °F 28.6 °F 21.2 °F 56% 30.32 in 10.0 mi SW 9.2 mph - N/A   Clear
4:35 PM 35.6 °F 28.6 °F 21.2 °F 56% 30.33 in 10.0 mi SW 9.2 mph - N/A   Clear
4:55 PM 33.8 °F 28.6 °F 23.0 °F 65% 30.33 in 10.0 mi SW 5.8 mph - N/A   Clear
5:15 PM 33.8 °F 30.8 °F 23.0 °F 65% 30.34 in 10.0 mi WSW 3.5 mph - N/A   Clear
5:35 PM 32.0 °F - 21.2 °F 64% 30.34 in 10.0 mi Calm Calm - N/A   Clear
5:55 PM 32.0 °F 28.7 °F 21.2 °F 64% 30.35 in 10.0 mi WSW 3.5 mph - N/A   Clear
6:15 PM 32.0 °F - 23.0 °F 69% 30.36 in 10.0 mi Calm Calm - N/A   Clear
6:35 PM 32.0 °F 28.7 °F 23.0 °F 69% 30.36 in 10.0 mi SW 3.5 mph - N/A   Clear
6:55 PM 32.0 °F 26.4 °F 23.0 °F 69% 30.37 in 10.0 mi SW 5.8 mph - N/A   Clear
7:15 PM 32.0 °F 27.5 °F 21.2 °F 64% 30.38 in 10.0 mi West 4.6 mph - N/A   Clear
7:35 PM 30.2 °F 24.3 °F 23.0 °F 75% 30.39 in 10.0 mi West 5.8 mph - N/A   Clear
7:55 PM 30.2 °F 24.3 °F 23.0 °F 75% 30.40 in 10.0 mi West 5.8 mph - N/A   Clear
8:15 PM 30.2 °F 24.3 °F 21.2 °F 69% 30.42 in 10.0 mi West 5.8 mph - N/A   Clear
8:35 PM 28.4 °F 22.2 °F 23.0 °F 80% 30.42 in 10.0 mi West 5.8 mph - N/A   Clear
8:55 PM 28.4 °F 22.2 °F 21.2 °F 74% 30.43 in 10.0 mi West 5.8 mph - N/A   Clear
9:15 PM 28.4 °F 22.2 °F 21.2 °F 74% 30.43 in 10.0 mi West 5.8 mph - N/A   Clear
9:35 PM 28.4 °F 22.2 °F 21.2 °F 74% 30.44 in 10.0 mi West 5.8 mph - N/A   Clear
9:55 PM 28.4 °F 23.3 °F 21.2 °F 74% 30.45 in 10.0 mi West 4.6 mph - N/A   Clear
10:15 PM 28.4 °F 23.3 °F 21.2 °F 74% 30.45 in 10.0 mi WSW 4.6 mph - N/A   Clear
10:35 PM 28.4 °F 23.3 °F 21.2 °F 74% 30.46 in 10.0 mi WSW 4.6 mph - N/A   Clear
10:55 PM 28.4 °F 23.3 °F 21.2 °F 74% 30.46 in 10.0 mi WSW 4.6 mph - N/A   Clear
11:15 PM 26.6 °F 21.2 °F 21.2 °F 80% 30.47 in 10.0 mi WSW 4.6 mph - N/A   Clear
11:35 PM 28.4 °F 23.3 °F 21.2 °F 74% 30.47 in 10.0 mi SW 4.6 mph - N/A   Clear
11:55 PM 26.6 °F 21.2 °F 19.4 °F 74% 30.47 in 10.0 mi WSW 4.6 mph - N/A   Clear